This is the latest recevied weather packets stored in our database for station/object KE0TNI-13. If no packets are shown the sender has not sent any weather packets the latest 10 day(s).
| Time | Temp. | Humidity | Pressure | Rain* | Wind** | Luminosity | Snow |
|---|---|---|---|---|---|---|---|
| 1778018641 | -1.11° C | 96% | 1012.1 hPa | 0.51 mm | - | 12 W/m² | - |
| 1778018339 | -1.11° C | 96% | 1012.2 hPa | 0.51 mm | - | 10 W/m² | - |
| 1778018037 | -1.11° C | 96% | 1012.2 hPa | 0 mm | - | 23 W/m² | - |
| 1778017735 | -1.11° C | 96% | 1012.3 hPa | 0 mm | - | 33 W/m² | - |
| 1778017432 | -1.11° C | 96% | 1012.2 hPa | 0 mm | - | 36 W/m² | - |
| 1778017129 | -1.11° C | 96% | 1012.1 hPa | 1.27 mm | - | 55 W/m² | - |
| 1778016827 | -1.11° C | 96% | 1012.4 hPa | 0.51 mm | - | 78 W/m² | - |
| 1778016523 | -1.11° C | 96% | 1012.6 hPa | 0 mm | - | 73 W/m² | - |
| 1778016220 | -1.11° C | 96% | 1012.4 hPa | 0 mm | - | 78 W/m² | - |
| 1778015916 | -1.11° C | 96% | 1013 hPa | 0.51 mm | - | 115 W/m² | - |
| 1778015614 | -1.11° C | 96% | 1012.7 hPa | 0.51 mm | - | 70 W/m² | - |
| 1778015310 | -1.11° C | 96% | 1012.7 hPa | 0.51 mm | - | 97 W/m² | - |
| 1778015007 | -1.11° C | 96% | 1013 hPa | 0.51 mm | - | 125 W/m² | - |
| 1778014704 | -1.11° C | 95% | 1013.2 hPa | 0 mm | - | 73 W/m² | - |
| 1778014402 | -1.11° C | 95% | 1013.1 hPa | 0 mm | - | 80 W/m² | - |
| 1778014099 | -1.11° C | 95% | 1013.1 hPa | 0.51 mm | - | 103 W/m² | - |
| 1778013797 | -1.11° C | 95% | 1013.2 hPa | 0.51 mm | - | 55 W/m² | - |
| 1778013494 | -1.11° C | 95% | 1013 hPa | 0.51 mm | - | 112 W/m² | - |
| 1778013190 | -0.56° C | 95% | 1013.1 hPa | 0.51 mm | - | 101 W/m² | - |
| 1778012887 | -1.11° C | 95% | 1013.7 hPa | 0 mm | - | 88 W/m² | - |
| 1778012583 | -1.11° C | 95% | 1013.5 hPa | 0.51 mm | - | 117 W/m² | - |
| 1778012280 | -0.56° C | 95% | 1013.6 hPa | 0.51 mm | - | 87 W/m² | - |
| 1778011977 | -0.56° C | 95% | 1013.2 hPa | 0 mm | - | 102 W/m² | - |
| 1778011675 | -0.56° C | 95% | 1013.5 hPa | 0 mm | - | 100 W/m² | - |
| 1778011372 | -0.56° C | 94% | 1013.4 hPa | 0 mm | - | 119 W/m² | - |
* Rain latest hour (hover to see other rain measurements)
** Current wind speed in m/s (hover to see current wind gust speed)